GW3653 Weather Reports


Display with metric or nautical units.
time (UTC)temp
F
wind
direction
speed
MPH
gust
MPH
rain 1hr
in
rain 24hr
in
rain mn
in
humidity
%
barometer
mb
20260503001538 57 0.0 1.0 0.02 0.30 0.04 96 1026.9
20260503000518 56 0.0 1.0 0.02 0.30 0.04 96 1026.9
20260502235518 56 0.0 1.0 0.02 0.30 0.04 96 1026.8
20260502234518 56 113 1.0 6.0 0.02 0.30 0.04 96 1026.8
20260502233539 56 0.0 1.0 0.02 0.30 0.04 96 1026.5
20260502232518 56 0.0 0.0 0.01 0.29 0.03 96 1026.6
20260502231520 56 0.0 2.0 0.00 0.28 0.02 96 1026.4
20260502230538 56 0.0 1.0 0.00 0.28 0.02 96 1026.5
20260502225518 56 0.0 1.0 0.00 0.28 0.02 96 1026.4
20260502224518 56 0.0 1.0 0.00 0.28 0.02 96 1026.1
20260502223518 55 0.0 1.0 0.00 0.28 0.02 96 1026.1
20260502222518 55 0.0 1.0 0.00 0.28 0.02 96 1025.9
20260502221518 55 0.0 2.0 0.00 0.28 0.02 96 1025.9
20260502220518 55 0.0 1.0 0.00 0.28 0.02 96 1025.8
20260502215518 55 0.0 1.0 0.00 0.28 0.02 96 1025.7
20260502214518 55 0.0 1.0 0.00 0.28 0.02 96 1025.7
20260502213519 55 0.0 2.0 0.00 0.28 0.02 96 1025.6
20260502212518 55 0.0 1.0 0.00 0.28 0.02 96 1025.5
20260502211518 55 158 1.0 3.0 0.00 0.28 0.02 96 1025.5
20260502210518 55 0.0 5.0 0.00 0.28 0.02 96 1025.6
20260502205518 55 0.0 3.0 0.00 0.30 0.02 96 1025.3
20260502204538 55 135 1.0 4.0 0.00 0.30 0.02 96 1025.4
20260502203518 55 90 1.0 3.0 0.00 0.30 0.02 96 1025.4
20260502202518 55 0.0 1.0 0.00 0.30 0.02 96 1025.2
20260502201518 55 0.0 3.0 0.01 0.30 0.02 96 1025.1
20260502200518 55 203 1.0 4.0 0.01 0.30 0.02 96 1025.0
20260502195518 55 0.0 1.0 0.01 0.30 0.02 96 1025.2
20260502194517 55 0.0 2.0 0.01 0.30 0.02 96 1025.0
20260502193518 55 0.0 2.0 0.01 0.30 0.02 96 1024.9
20260502192518 55 135 2.0 6.0 0.01 0.30 0.02 96 1025.1
20260502191518 55 0.0 1.0 0.00 0.29 0.02 96 1024.9
20260502190517 55 0.0 1.0 0.00 0.29 0.02 96 1025.0
20260502185517 55 0.0 0.0 0.01 0.29 0.02 96 1024.9
20260502184517 55 0.0 1.0 0.01 0.29 0.02 96 1024.9
20260502183518 55 0.0 6.0 0.01 0.29 0.02 96 1024.9
20260502182517 55 0.0 1.0 0.01 0.30 0.02 96 1025.1
20260502181517 55 0.0 1.0 0.01 0.30 0.02 96 1024.8
20260502180517 55 0.0 1.0 0.01 0.30 0.02 96 1025.0
20260502170517 55 0.0 0.0 0.01 0.29 0.01 96 1024.8
20260502163558 55 0.0 1.0 0.01 0.29 0.01 96 1024.7
20260502162517 55 0.0 2.0 0.01 0.29 0.01 96 1024.6
20260502161517 55 113 1.0 4.0 0.02 0.29 0.01 96 1024.6
20260502160517 55 0.0 1.0 0.02 0.28 0.00 96 1024.6
20260502152018 55 0.0 2.0 0.02 0.28 0.28 96 1024.6
20260502151018 55 0.0 0.0 0.01 0.27 0.27 96 1024.6
20260502123017 56 0.0 5.0 0.03 0.25 0.25 95 1024.4
20260502122017 56 0.0 2.0 0.04 0.25 0.25 95 1024.4
20260502121037 56 113 1.0 4.0 0.05 0.25 0.25 95 1024.3
20260502115017 56 225 1.0 4.0 0.06 0.24 0.24 94 1024.3
20260502114017 56 0.0 2.0 0.04 0.22 0.22 94 1024.2
20260502113017 56 135 2.0 5.0 0.05 0.24 0.22 94 1024.2
20260502112017 56 0.0 2.0 0.05 0.24 0.21 94 1024.3
20260502111017 56 0.0 2.0 0.05 0.23 0.20 93 1024.2
20260502110037 57 225 1.0 5.0 0.05 0.23 0.20 92 1024.1
20260502105018 57 203 1.0 4.0 0.02 0.20 0.18 90 1024.0
20260502104019 57 225 2.0 6.0 0.02 0.21 0.18 90 1024.0
20260502103019 57 225 2.0 5.0 0.02 0.20 0.17 88 1023.9
20260502102017 58 225 2.0 7.0 0.01 0.20 0.17 84 1024.0
20260502101019 58 248 2.0 8.0 0.00 0.19 0.16 84 1023.6
20260502091019 58 225 2.0 6.0 0.00 0.19 0.16 82 1023.3
20260502071019 59 225 6.0 14.0 0.00 0.17 0.14 82 1023.7
20260502070018 58 203 2.0 6.0 0.00 0.17 0.14 82 1023.4
20260502065018 60 225 5.0 16.0 0.00 0.17 0.14 79 1023.5
20260502064019 62 248 3.0 9.0 0.00 0.17 0.14 74 1023.2
20260502063038 61 225 5.0 11.0 0.00 0.17 0.14 73 1023.3
20260502062019 61 225 4.0 13.0 0.00 0.17 0.14 73 1023.3
20260502061019 62 248 5.0 17.0 0.00 0.19 0.14 72 1023.2
20260502060018 61 203 5.0 11.0 0.00 0.19 0.14 76 1023.2
20260502055019 61 225 4.0 11.0 0.00 0.19 0.14 75 1023.3
20260502054019 60 225 4.0 14.0 0.00 0.19 0.14 78 1023.3
20260502053018 60 248 2.0 8.0 0.00 0.19 0.14 81 1023.3
20260502052018 59 225 5.0 15.0 0.00 0.19 0.14 82 1023.5
20260502051019 59 225 2.0 7.0 0.00 0.19 0.14 88 1023.4
20260502050018 58 225 4.0 11.0 0.00 0.20 0.14 91 1023.6
20260502045018 57 225 4.0 8.0 0.00 0.20 0.14 94 1023.6
20260502044019 56 225 4.0 11.0 0.02 0.20 0.14 93 1023.8
20260502043038 55 225 6.0 12.0 0.03 0.20 0.14 93 1023.9
20260502042018 56 225 6.0 14.0 0.03 0.20 0.14 93 1024.0
20260502041019 56 225 3.0 9.0 0.03 0.20 0.14 94 1024.0
20260502040018 55 225 3.0 11.0 0.05 0.20 0.14 94 1024.3
20260502035018 55 248 4.0 9.0 0.05 0.20 0.14 92 1024.3
20260502034038 57 225 4.0 13.0 0.02 0.18 0.12 91 1024.6
20260502033018 57 225 2.0 11.0 0.02 0.17 0.11 94 1024.5
20260502032018 56 225 1.0 9.0 0.02 0.17 0.11 94 1024.6
20260502031018 55 225 1.0 5.0 0.02 0.17 0.11 94 1024.8
20260502030018 54 225 2.0 6.0 0.01 0.16 0.09 92 1024.7
20260502025018 55 225 4.0 10.0 0.01 0.16 0.09 93 1024.6
20260502024018 55 248 4.0 13.0 0.01 0.16 0.09 94 1024.6
20260502023018 54 225 4.0 10.0 0.01 0.16 0.09 94 1024.7
20260502022038 54 225 3.0 9.0 0.01 0.16 0.09 94 1024.8
20260502021018 54 225 2.0 11.0 0.02 0.17 0.09 94 1025.0
20260502020058 53 203 1.0 4.0 0.02 0.17 0.09 94 1024.9
20260502015038 53 225 3.0 12.0 0.02 0.17 0.09 93 1024.9
20260502014018 53 225 1.0 5.0 0.02 0.17 0.09 94 1025.0
20260502013018 53 225 2.0 7.0 0.03 0.17 0.09 93 1025.1
20260502012018 53 135 3.0 12.0 0.06 0.17 0.09 93 1025.3
20260502011038 53 0.0 1.0 0.05 0.16 0.07 93 1025.2
20260502010018 53 0.0 2.0 0.05 0.16 0.07 93 1025.1
20260502005018 53 158 1.0 5.0 0.04 0.16 0.06 92 1025.1
20260502004018 53 180 1.0 4.0 0.04 0.16 0.06 90 1025.3
20260502003058 56 225 4.0 14.0 0.03 0.15 0.06 80 1025.3